SJX4NS LDPL-EETN

Flight info

Callsign SJX4NS
Flight time 2h 9m
Altitude 41000
Route GIRDA DCT TOVKA DCT MEBAN M985 KOTEK M866 GERVI M857 BOKSU DCT GUNTA DCT KEMET
Aircraft A359/H-SDE2E3GHIJ1J3J4J5LM1ORWXY/LB1D1

Departure

Time 2026-05-05 15:28
Airport Pula Airport (LDPL)

Arrival

Time 2026-05-05 17:37
Airport Lennart Meri Tallinn Airport (EETN)
Time Latitude Longitude Altitude Speed Heading
2026-05-05 15:14 44.89685 13.92397 227 ft 0 kts 31°
2026-05-05 15:24 44.89686 13.92398 226 ft 1 kts 31°
2026-05-05 15:24 44.89691 13.92409 225 ft 2 kts 58°
2026-05-05 15:24 44.89691 13.92432 226 ft 3 kts 103°
2026-05-05 15:24 44.89671 13.92462 225 ft 6 kts 149°
2026-05-05 15:25 44.89610 13.92458 230 ft 11 kts 204°
2026-05-05 15:25 44.89579 13.92359 225 ft 15 kts 264°
2026-05-05 15:25 44.89572 13.92175 225 ft 20 kts 268°
2026-05-05 15:25 44.89569 13.91959 223 ft 24 kts 269°
2026-05-05 15:26 44.89565 13.91697 210 ft 31 kts 269°
2026-05-05 15:26 44.89558 13.91388 208 ft 31 kts 268°
2026-05-05 15:26 44.89551 13.91072 197 ft 33 kts 268°
2026-05-05 15:26 44.89543 13.90727 201 ft 37 kts 268°
2026-05-05 15:27 44.89494 13.90543 201 ft 19 kts 229°
2026-05-05 15:27 44.89397 13.90400 199 ft 18 kts 220°
2026-05-05 15:27 44.89331 13.90402 193 ft 7 kts 134°
2026-05-05 15:27 44.89317 13.90473 196 ft 10 kts 95°
2026-05-05 15:28 44.89324 13.90838 199 ft 72 kts 88°
2026-05-05 15:28 44.89346 13.91869 212 ft 136 kts 88°
2026-05-05 15:28 44.89361 13.93412 524 ft 167 kts 93°
2026-05-05 15:28 44.89356 13.95036 1365 ft 165 kts 96°
2026-05-05 15:29 44.89379 13.96717 1888 ft 184 kts 94°
2026-05-05 15:29 44.89438 13.98637 2196 ft 212 kts 92°
2026-05-05 15:29 44.89839 14.00765 2436 ft 241 kts 59°
2026-05-05 15:29 44.91132 14.02344 2963 ft 251 kts 29°
2026-05-05 15:30 44.92707 14.03464 3575 ft 255 kts 26°
2026-05-05 15:30 44.94303 14.04574 4240 ft 255 kts 25°
2026-05-05 15:30 44.95869 14.05701 4923 ft 258 kts 25°
2026-05-05 15:30 44.97470 14.06883 5792 ft 260 kts 25°
2026-05-05 15:31 44.99071 14.08078 6581 ft 263 kts 24°
2026-05-05 15:31 45.00701 14.09305 7431 ft 267 kts 24°
2026-05-05 15:31 45.02356 14.10543 8322 ft 271 kts 23°
2026-05-05 15:31 45.04096 14.11708 9000 ft 286 kts 24°
2026-05-05 15:32 45.05883 14.13092 9696 ft 298 kts 27°
2026-05-05 15:32 45.07701 14.14579 10477 ft 309 kts 27°
2026-05-05 15:32 45.09623 14.16175 10891 ft 332 kts 27°
2026-05-05 15:32 45.11658 14.17865 11286 ft 354 kts 27°
2026-05-05 15:33 45.13844 14.19670 11717 ft 371 kts 27°
2026-05-05 15:33 45.16119 14.21541 12368 ft 381 kts 27°
2026-05-05 15:33 45.18428 14.23437 13156 ft 386 kts 28°
2026-05-05 15:33 45.20776 14.25361 13896 ft 394 kts 27°
2026-05-05 15:34 45.23170 14.27320 14619 ft 398 kts 27°
2026-05-05 15:34 45.25582 14.29293 15354 ft 403 kts 27°
2026-05-05 15:34 45.28027 14.31295 16084 ft 407 kts 27°
2026-05-05 15:34 45.30465 14.33292 16818 ft 411 kts 28°
2026-05-05 15:35 45.32958 14.35337 17546 ft 415 kts 28°
2026-05-05 15:35 45.35475 14.37404 18280 ft 420 kts 28°
2026-05-05 15:35 45.38023 14.39499 18932 ft 424 kts 28°
2026-05-05 15:35 45.40587 14.41608 19592 ft 428 kts 28°
2026-05-05 15:36 45.43149 14.43718 20252 ft 432 kts 28°
2026-05-05 15:36 45.45755 14.45867 20956 ft 436 kts 28°
2026-05-05 15:36 45.48405 14.48054 21524 ft 443 kts 28°
2026-05-05 15:36 45.51078 14.50264 22224 ft 446 kts 28°
2026-05-05 15:37 45.53791 14.52511 22872 ft 451 kts 28°
2026-05-05 15:37 45.56516 14.54768 23537 ft 455 kts 29°
2026-05-05 15:37 45.59004 14.56831 24036 ft 459 kts 29°
2026-05-05 15:37 45.61777 14.59132 24621 ft 462 kts 29°
2026-05-05 15:38 45.64567 14.61451 25204 ft 465 kts 29°
2026-05-05 15:38 45.67369 14.63783 25846 ft 466 kts 29°
2026-05-05 15:38 45.70187 14.66131 26440 ft 469 kts 29°
2026-05-05 15:38 45.72991 14.68470 26974 ft 473 kts 29°
2026-05-05 15:39 45.75847 14.70855 27527 ft 476 kts 29°
2026-05-05 15:39 45.78720 14.73257 28075 ft 479 kts 29°
2026-05-05 15:39 45.81615 14.75680 28652 ft 482 kts 29°
2026-05-05 15:39 45.84526 14.78120 29187 ft 486 kts 29°
2026-05-05 15:40 45.87420 14.80549 29691 ft 489 kts 29°
2026-05-05 15:40 45.90366 14.83024 30172 ft 492 kts 29°
2026-05-05 15:40 45.93331 14.85517 30592 ft 495 kts 29°
2026-05-05 15:40 45.96309 14.88025 31009 ft 497 kts 28°
2026-05-05 15:41 45.99300 14.90547 31400 ft 500 kts 28°
2026-05-05 15:41 46.02317 14.93094 31718 ft 504 kts 28°
2026-05-05 15:41 46.05352 14.95659 32058 ft 507 kts 28°
2026-05-05 15:41 46.08402 14.98242 32421 ft 509 kts 28°
2026-05-05 15:42 46.11457 15.00832 32801 ft 510 kts 28°
2026-05-05 15:42 46.14514 15.03427 33290 ft 508 kts 28°
2026-05-05 15:42 46.17555 15.06015 33800 ft 506 kts 28°
2026-05-05 15:42 46.20587 15.08596 34275 ft 504 kts 28°
2026-05-05 15:43 46.23569 15.11137 34650 ft 503 kts 28°
2026-05-05 15:43 46.26580 15.13706 35000 ft 503 kts 28°
2026-05-05 15:43 46.29594 15.16280 35330 ft 503 kts 28°
2026-05-05 15:43 46.32610 15.18859 35676 ft 502 kts 28°
2026-05-05 15:44 46.35624 15.21441 36007 ft 502 kts 28°
2026-05-05 15:44 46.38630 15.24019 36311 ft 503 kts 28°
2026-05-05 15:44 46.41654 15.26615 36525 ft 505 kts 28°
2026-05-05 15:44 46.44670 15.29207 36806 ft 505 kts 28°
2026-05-05 15:45 46.47701 15.31816 36932 ft 506 kts 28°
2026-05-05 15:45 46.53721 15.37011 36929 ft 504 kts 28°
2026-05-05 15:46 46.59773 15.42247 36931 ft 508 kts 28°
2026-05-05 15:46 46.65862 15.47523 36924 ft 516 kts 28°
2026-05-05 15:47 46.72056 15.52908 36916 ft 517 kts 28°
2026-05-05 15:47 46.78232 15.58295 36890 ft 517 kts 29°
2026-05-05 15:48 46.84367 15.63659 36887 ft 517 kts 29°
2026-05-05 15:48 46.90536 15.69067 36884 ft 517 kts 29°
2026-05-05 15:49 46.96723 15.74505 36885 ft 518 kts 29°
2026-05-05 15:49 47.02889 15.79940 36884 ft 517 kts 29°
2026-05-05 15:50 47.09024 15.85362 36883 ft 517 kts 29°
2026-05-05 15:50 47.15190 15.90827 36876 ft 517 kts 29°
2026-05-05 15:51 47.21345 15.96296 36874 ft 517 kts 29°
2026-05-05 15:51 47.27506 16.01785 36860 ft 517 kts 29°
2026-05-05 15:52 47.33660 16.07283 36860 ft 517 kts 29°
2026-05-05 15:52 47.39785 16.12771 36855 ft 518 kts 29°
2026-05-05 15:53 47.45973 16.18331 36840 ft 519 kts 29°
2026-05-05 15:53 47.52101 16.23853 36839 ft 518 kts 29°
2026-05-05 15:54 47.58279 16.29436 36829 ft 519 kts 30°
2026-05-05 15:54 47.64445 16.35023 36829 ft 518 kts 30°
2026-05-05 15:55 47.70604 16.40618 36811 ft 518 kts 29°
2026-05-05 15:55 47.76727 16.46196 36804 ft 518 kts 29°
2026-05-05 15:56 47.81846 16.50871 36803 ft 518 kts 30°
2026-05-05 15:56 47.87997 16.56505 36804 ft 518 kts 30°
2026-05-05 15:57 47.94143 16.62149 36780 ft 518 kts 30°
2026-05-05 15:57 48.00293 16.67814 36776 ft 518 kts 30°
2026-05-05 15:58 48.06348 16.73541 36776 ft 519 kts 34°
2026-05-05 15:58 48.11680 16.80868 36776 ft 522 kts 45°
2026-05-05 15:59 48.16509 16.89023 36792 ft 523 kts 48°
2026-05-05 15:59 48.21221 16.97339 37197 ft 518 kts 49°
2026-05-05 15:59 48.23513 17.01384 37787 ft 510 kts 48°
2026-05-05 16:00 48.25810 17.05425 38210 ft 508 kts 48°
2026-05-05 16:00 48.28101 17.09440 38585 ft 504 kts 48°
2026-05-05 16:00 48.30383 17.13432 38810 ft 504 kts 48°
2026-05-05 16:00 48.32665 17.17426 39061 ft 502 kts 48°
2026-05-05 16:01 48.34949 17.21425 39200 ft 504 kts 48°
2026-05-05 16:01 48.37228 17.25422 39450 ft 503 kts 48°
2026-05-05 16:01 48.39510 17.29430 39554 ft 504 kts 48°
2026-05-05 16:01 48.41765 17.33398 39789 ft 503 kts 48°
2026-05-05 16:02 48.44045 17.37416 39939 ft 504 kts 48°
2026-05-05 16:02 48.46317 17.41430 40208 ft 502 kts 48°
2026-05-05 16:02 48.48589 17.45447 40340 ft 502 kts 48°
2026-05-05 16:02 48.50857 17.49464 40509 ft 503 kts 48°
2026-05-05 16:03 48.53128 17.53493 40643 ft 503 kts 48°
2026-05-05 16:03 48.55396 17.57522 40788 ft 504 kts 48°
2026-05-05 16:03 48.57675 17.61575 40806 ft 507 kts 48°
2026-05-05 16:04 48.62267 17.69762 40803 ft 513 kts 48°
2026-05-05 16:04 48.66867 17.77991 40801 ft 517 kts 48°
2026-05-05 16:05 48.71511 17.86324 40830 ft 518 kts 48°
2026-05-05 16:05 48.76159 17.94692 40823 ft 518 kts 48°
2026-05-05 16:06 48.80801 18.03076 40828 ft 518 kts 49°
2026-05-05 16:06 48.85445 18.11488 40840 ft 518 kts 49°
2026-05-05 16:07 48.90038 18.19836 40846 ft 518 kts 49°
2026-05-05 16:07 48.94664 18.28269 40846 ft 519 kts 49°
2026-05-05 16:08 48.99277 18.36705 40847 ft 517 kts 49°
2026-05-05 16:08 49.03841 18.45078 40864 ft 516 kts 49°
2026-05-05 16:09 49.08425 18.53514 40863 ft 516 kts 49°
2026-05-05 16:09 49.13012 18.61985 40865 ft 516 kts 49°
2026-05-05 16:10 49.17589 18.70461 40862 ft 517 kts 49°
2026-05-05 16:10 49.22140 18.78917 40871 ft 517 kts 49°
2026-05-05 16:11 49.26718 18.87452 40872 ft 517 kts 49°
2026-05-05 16:11 49.34828 18.98126 40873 ft 513 kts 30°
2026-05-05 16:12 49.37868 19.00879 40873 ft 512 kts 27°
2026-05-05 16:13 49.53552 19.13977 40864 ft 513 kts 27°
2026-05-05 16:13 49.59764 19.19252 40857 ft 513 kts 27°
2026-05-05 16:14 49.72257 19.29963 40863 ft 513 kts 27°
2026-05-05 16:15 49.84688 19.40674 40854 ft 512 kts 27°
2026-05-05 16:16 49.97143 19.51471 40843 ft 511 kts 27°
2026-05-05 16:17 50.06450 19.59581 40837 ft 510 kts 27°
2026-05-05 16:18 50.15696 19.67672 40837 ft 510 kts 27°
2026-05-05 16:19 50.24981 19.75835 40811 ft 510 kts 27°
2026-05-05 16:19 50.34213 19.83988 40825 ft 510 kts 27°
2026-05-05 16:20 50.46586 19.94973 40821 ft 510 kts 27°
2026-05-05 16:22 50.62372 20.07714 40817 ft 509 kts 22°
2026-05-05 16:23 50.75194 20.17106 40809 ft 509 kts 23°
2026-05-05 16:23 50.84844 20.24278 40806 ft 511 kts 23°
2026-05-05 16:24 50.91241 20.29058 40806 ft 511 kts 23°
2026-05-05 16:25 51.00882 20.36288 40806 ft 511 kts 23°
2026-05-05 16:25 51.10541 20.43564 40804 ft 511 kts 23°
2026-05-05 16:26 51.23357 20.53269 40801 ft 511 kts 23°
2026-05-05 16:27 51.29794 20.58165 40799 ft 512 kts 23°
2026-05-05 16:27 51.36229 20.63077 40796 ft 512 kts 23°
2026-05-05 16:28 51.42624 20.67973 40803 ft 512 kts 23°
2026-05-05 16:28 51.49053 20.72910 40797 ft 512 kts 23°
2026-05-05 16:29 51.55480 20.77861 40794 ft 512 kts 23°
2026-05-05 16:29 51.61910 20.82831 40791 ft 512 kts 24°
2026-05-05 16:30 51.68297 20.87783 40790 ft 512 kts 24°
2026-05-05 16:30 51.74726 20.92783 40790 ft 512 kts 24°
2026-05-05 16:31 51.81117 20.97769 40788 ft 512 kts 24°
2026-05-05 16:31 51.87529 21.02788 40794 ft 512 kts 24°
2026-05-05 16:32 51.93950 21.07830 40785 ft 512 kts 24°
2026-05-05 16:32 52.00361 21.12880 40785 ft 512 kts 24°
2026-05-05 16:33 52.06764 21.17939 40776 ft 512 kts 24°
2026-05-05 16:33 52.13130 21.22986 40781 ft 512 kts 24°
2026-05-05 16:34 52.19550 21.28092 40776 ft 512 kts 24°
2026-05-05 16:34 52.25952 21.33199 40777 ft 512 kts 24°
2026-05-05 16:35 52.32358 21.38327 40786 ft 513 kts 24°
2026-05-05 16:35 52.38731 21.43444 40783 ft 513 kts 24°
2026-05-05 16:36 52.45145 21.48612 40786 ft 514 kts 24°
2026-05-05 16:36 52.51570 21.53806 40781 ft 514 kts 24°
2026-05-05 16:37 52.57984 21.59007 40780 ft 514 kts 24°
2026-05-05 16:37 52.64367 21.64201 40778 ft 514 kts 24°
2026-05-05 16:38 52.70794 21.69447 40781 ft 514 kts 24°
2026-05-05 16:38 52.77186 21.74681 40791 ft 515 kts 24°
2026-05-05 16:39 52.83627 21.79973 40789 ft 515 kts 24°
2026-05-05 16:39 52.90048 21.85268 40788 ft 516 kts 24°
2026-05-05 16:40 52.96473 21.90583 40790 ft 516 kts 24°
2026-05-05 16:40 53.02845 21.95871 40795 ft 516 kts 24°
2026-05-05 16:41 53.09286 22.01234 40792 ft 517 kts 24°
2026-05-05 16:41 53.15723 22.06613 40802 ft 517 kts 24°
2026-05-05 16:42 53.22153 22.12004 40811 ft 517 kts 24°
2026-05-05 16:42 53.28593 22.17421 40818 ft 518 kts 24°
2026-05-05 16:43 53.35026 22.22851 40816 ft 518 kts 24°
2026-05-05 16:43 53.41424 22.28269 40826 ft 518 kts 24°
2026-05-05 16:44 53.47860 22.33739 40833 ft 518 kts 24°
2026-05-05 16:44 53.53219 22.38307 40831 ft 518 kts 24°
2026-05-05 16:45 53.59655 22.43811 40837 ft 519 kts 24°
2026-05-05 16:45 53.66088 22.49330 40857 ft 519 kts 24°
2026-05-05 16:46 53.72500 22.54852 40842 ft 520 kts 24°
2026-05-05 16:46 53.78950 22.60425 40851 ft 520 kts 24°
2026-05-05 16:47 53.85362 22.65984 40856 ft 520 kts 24°
2026-05-05 16:47 53.91799 22.71586 40856 ft 520 kts 24°
2026-05-05 16:48 53.98249 22.77217 40865 ft 520 kts 24°
2026-05-05 16:48 54.04680 22.82851 40866 ft 520 kts 24°
2026-05-05 16:49 54.11121 22.88515 40890 ft 520 kts 24°
2026-05-05 16:49 54.17517 22.94158 40873 ft 521 kts 24°
2026-05-05 16:50 54.23963 22.99866 40884 ft 522 kts 24°
2026-05-05 16:50 54.30515 23.05163 40886 ft 518 kts 15°
2026-05-05 16:51 54.37482 23.08131 40888 ft 514 kts
2026-05-05 16:51 54.44505 23.10438 40892 ft 514 kts
2026-05-05 16:52 54.51549 23.12644 40910 ft 514 kts
2026-05-05 16:52 54.58548 23.14872 40904 ft 515 kts
2026-05-05 16:53 54.65604 23.17157 40895 ft 515 kts
2026-05-05 16:53 54.72655 23.19460 40897 ft 515 kts
2026-05-05 16:54 54.79697 23.21767 40898 ft 515 kts
2026-05-05 16:54 54.86698 23.24068 40914 ft 515 kts
2026-05-05 16:55 54.93755 23.26395 40903 ft 515 kts
2026-05-05 16:55 55.00803 23.28727 40901 ft 515 kts
2026-05-05 16:56 55.07859 23.31070 40896 ft 516 kts
2026-05-05 16:56 55.14912 23.33421 40899 ft 513 kts
2026-05-05 16:57 55.21813 23.35735 40901 ft 504 kts
2026-05-05 16:57 55.28699 23.38046 40890 ft 503 kts
2026-05-05 16:58 55.35541 23.40347 40900 ft 503 kts
2026-05-05 16:58 55.42419 23.42669 40896 ft 503 kts
2026-05-05 16:59 55.49304 23.45004 40893 ft 504 kts
2026-05-05 16:59 55.56199 23.47351 40893 ft 504 kts
2026-05-05 17:00 55.63064 23.49696 40892 ft 505 kts
2026-05-05 17:00 55.69973 23.52065 40888 ft 506 kts
2026-05-05 17:01 55.76897 23.54448 40888 ft 506 kts
2026-05-05 17:01 55.83779 23.56825 40889 ft 506 kts
2026-05-05 17:02 55.90704 23.59226 40881 ft 506 kts
2026-05-05 17:02 55.97637 23.61637 40876 ft 507 kts
2026-05-05 17:03 56.04531 23.64043 40876 ft 507 kts
2026-05-05 17:03 56.11502 23.66486 40867 ft 507 kts
2026-05-05 17:04 56.18388 23.68908 40876 ft 507 kts
2026-05-05 17:04 56.25310 23.71351 40867 ft 507 kts
2026-05-05 17:05 56.32241 23.73807 40868 ft 507 kts
2026-05-05 17:05 56.39174 23.76263 40867 ft 507 kts
2026-05-05 17:06 56.46119 23.78558 40867 ft 506 kts
2026-05-05 17:06 56.53047 23.80849 40868 ft 506 kts
2026-05-05 17:07 56.59935 23.83149 40885 ft 506 kts
2026-05-05 17:07 56.66874 23.85478 40883 ft 506 kts
2026-05-05 17:08 56.73823 23.87821 40896 ft 506 kts
2026-05-05 17:08 56.80757 23.90167 40888 ft 507 kts
2026-05-05 17:09 56.87647 23.92508 40883 ft 507 kts
2026-05-05 17:09 56.94593 23.94876 40884 ft 507 kts
2026-05-05 17:10 57.01535 23.97253 40886 ft 507 kts
2026-05-05 17:10 57.08480 23.99638 40864 ft 508 kts
2026-05-05 17:11 57.15437 24.02038 40676 ft 508 kts
2026-05-05 17:11 57.18917 24.03242 40436 ft 508 kts
2026-05-05 17:11 57.22401 24.04449 40195 ft 508 kts
2026-05-05 17:12 57.25875 24.05655 39966 ft 509 kts
2026-05-05 17:12 57.29352 24.06865 39762 ft 509 kts
2026-05-05 17:12 57.32792 24.08064 39537 ft 510 kts
2026-05-05 17:12 57.36279 24.09281 39305 ft 510 kts
2026-05-05 17:13 57.39772 24.10504 38897 ft 511 kts
2026-05-05 17:13 57.43265 24.11728 38155 ft 512 kts
2026-05-05 17:13 57.46784 24.12964 37302 ft 513 kts
2026-05-05 17:13 57.50290 24.14198 36519 ft 513 kts
2026-05-05 17:14 57.53799 24.15437 35747 ft 513 kts
2026-05-05 17:14 57.57305 24.16676 35035 ft 513 kts
2026-05-05 17:14 57.60818 24.17920 34313 ft 513 kts
2026-05-05 17:14 57.64323 24.19163 33568 ft 513 kts
2026-05-05 17:15 57.67838 24.20412 32742 ft 514 kts
2026-05-05 17:15 57.71366 24.21666 31953 ft 517 kts
2026-05-05 17:15 57.74915 24.22930 31291 ft 521 kts
2026-05-05 17:15 57.78491 24.24206 30657 ft 525 kts
2026-05-05 17:16 57.82045 24.25478 30059 ft 529 kts
2026-05-05 17:16 57.85674 24.26780 29389 ft 531 kts
2026-05-05 17:16 57.89313 24.28093 28937 ft 528 kts
2026-05-05 17:16 57.92909 24.29395 28855 ft 527 kts
2026-05-05 17:17 57.99991 24.33004 27906 ft 526 kts 12°
2026-05-05 17:17 58.03455 24.35240 27107 ft 524 kts 13°
2026-05-05 17:17 58.06891 24.37499 26393 ft 519 kts 13°
2026-05-05 17:18 58.10250 24.39716 25707 ft 515 kts 13°
2026-05-05 17:18 58.13628 24.41950 25018 ft 511 kts 13°
2026-05-05 17:18 58.16977 24.44169 24318 ft 508 kts 12°
2026-05-05 17:18 58.20309 24.46381 23637 ft 504 kts 12°
2026-05-05 17:19 58.23565 24.48547 22884 ft 500 kts 12°
2026-05-05 17:19 58.26831 24.50725 22181 ft 493 kts 13°
2026-05-05 17:19 58.30045 24.52873 21500 ft 487 kts 13°
2026-05-05 17:19 58.33225 24.55002 20831 ft 481 kts 13°
2026-05-05 17:20 58.36367 24.57108 20175 ft 475 kts 13°
2026-05-05 17:20 58.39469 24.59191 19526 ft 470 kts 12°
2026-05-05 17:20 58.42543 24.61258 18839 ft 466 kts 13°
2026-05-05 17:20 58.45588 24.63309 18166 ft 461 kts 13°
2026-05-05 17:21 58.48597 24.65340 17422 ft 456 kts 13°
2026-05-05 17:21 58.51531 24.67326 16758 ft 450 kts 13°
2026-05-05 17:21 58.54466 24.69315 16081 ft 444 kts 13°
2026-05-05 17:22 58.60219 24.73224 14741 ft 433 kts 13°
2026-05-05 17:22 58.63043 24.75147 14083 ft 428 kts 13°
2026-05-05 17:22 58.65839 24.77054 13412 ft 424 kts 14°
2026-05-05 17:22 58.68605 24.78944 12694 ft 418 kts 14°
2026-05-05 17:23 58.71328 24.80809 12036 ft 412 kts 14°
2026-05-05 17:23 58.74013 24.82651 11391 ft 407 kts 14°
2026-05-05 17:23 58.76635 24.84457 11120 ft 392 kts 14°
2026-05-05 17:23 58.79146 24.86194 10979 ft 374 kts 14°
2026-05-05 17:24 58.81512 24.87832 10850 ft 357 kts 13°
2026-05-05 17:24 58.83809 24.89420 10721 ft 342 kts 13°
2026-05-05 17:24 58.86006 24.90940 10586 ft 328 kts 13°
2026-05-05 17:24 58.88114 24.92398 10454 ft 315 kts 13°
2026-05-05 17:25 58.90143 24.93802 10312 ft 304 kts 13°
2026-05-05 17:25 58.91467 24.94715 10213 ft 309 kts 12°
2026-05-05 17:25 58.94179 24.96577 9787 ft 312 kts 13°
2026-05-05 17:25 58.96247 24.98007 9422 ft 317 kts 13°
2026-05-05 17:26 58.98318 24.99447 9078 ft 315 kts 13°
2026-05-05 17:26 59.00377 25.00884 8757 ft 313 kts 13°
2026-05-05 17:26 59.02415 25.02310 8433 ft 310 kts 14°
2026-05-05 17:26 59.04434 25.03723 8108 ft 307 kts 14°
2026-05-05 17:27 59.06434 25.05123 7787 ft 304 kts 14°
2026-05-05 17:27 59.08420 25.06515 7480 ft 301 kts 14°
2026-05-05 17:27 59.10382 25.07892 7182 ft 298 kts 14°
2026-05-05 17:27 59.12300 25.09239 6868 ft 295 kts 14°
2026-05-05 17:28 59.14228 25.10595 6556 ft 292 kts 14°
2026-05-05 17:28 59.16130 25.11934 6251 ft 289 kts 14°
2026-05-05 17:28 59.18019 25.13266 5927 ft 286 kts 14°
2026-05-05 17:28 59.19885 25.14582 5628 ft 284 kts 15°
2026-05-05 17:29 59.21724 25.15882 5337 ft 278 kts 15°
2026-05-05 17:29 59.23526 25.17159 5050 ft 273 kts 15°
2026-05-05 17:29 59.25310 25.18421 4761 ft 271 kts 15°
2026-05-05 17:29 59.27058 25.19659 4496 ft 268 kts 15°
2026-05-05 17:30 59.28774 25.20881 4342 ft 256 kts 15°
2026-05-05 17:30 59.30410 25.22048 4201 ft 246 kts 15°
2026-05-05 17:30 59.32020 25.23175 4004 ft 245 kts 14°
2026-05-05 17:30 59.33671 25.23776 3821 ft 240 kts 359°
2026-05-05 17:31 59.35333 25.23875 3609 ft 237 kts 356°
2026-05-05 17:31 59.36978 25.23903 3390 ft 236 kts 356°
2026-05-05 17:31 59.38578 25.23867 3253 ft 225 kts 351°
2026-05-05 17:31 59.39957 25.22933 3164 ft 200 kts 316°
2026-05-05 17:32 59.40704 25.20822 3075 ft 182 kts 291°
2026-05-05 17:32 59.41073 25.18517 3032 ft 174 kts 282°
2026-05-05 17:32 59.41187 25.16168 2968 ft 172 kts 271°
2026-05-05 17:32 59.41191 25.14617 2898 ft 164 kts 271°
2026-05-05 17:33 59.41228 25.12482 2795 ft 152 kts 272°
2026-05-05 17:33 59.41242 25.10418 2618 ft 148 kts 271°
2026-05-05 17:33 59.41248 25.08466 2412 ft 139 kts 271°
2026-05-05 17:33 59.41255 25.06581 2218 ft 137 kts 271°
2026-05-05 17:34 59.41262 25.04759 2013 ft 129 kts 271°
2026-05-05 17:34 59.41267 25.03042 1840 ft 122 kts 271°
2026-05-05 17:34 59.41272 25.01396 1689 ft 120 kts 271°
2026-05-05 17:34 59.41277 24.99753 1513 ft 121 kts 271°
2026-05-05 17:35 59.41282 24.98104 1343 ft 121 kts 271°
2026-05-05 17:35 59.41287 24.96454 1175 ft 121 kts 271°
2026-05-05 17:35 59.41292 24.94796 999 ft 121 kts 271°
2026-05-05 17:35 59.41297 24.93162 823 ft 121 kts 271°
2026-05-05 17:36 59.41301 24.91521 662 ft 120 kts 271°
2026-05-05 17:36 59.41306 24.89898 503 ft 118 kts 271°
2026-05-05 17:36 59.41311 24.88293 353 ft 117 kts 271°
2026-05-05 17:36 59.41316 24.86689 217 ft 116 kts 270°
2026-05-05 17:37 59.41320 24.85199 171 ft 98 kts 270°
2026-05-05 17:37 59.41323 24.84206 167 ft 59 kts 270°
2026-05-05 17:37 59.41325 24.83461 170 ft 51 kts 270°
2026-05-05 17:37 59.41331 24.82871 167 ft 22 kts 277°
2026-05-05 17:38 59.41339 24.82739 167 ft 0 kts 276°
2026-05-05 17:38 59.41341 24.82693 166 ft 8 kts 274°